Flag for Canada Weather past 2 weeks in Burnaby, British Columbia, Canada

Now
52 °F

Partly sunny.


Feels Like: 48 °F
Forecast: 43 / 67 °F
Wind: 12 mph from Northwest

Location: Vancouver International Air-Port

Current Time: Apr 18, 2015 at 9:46:25 PM

Latest Report: Apr 18, 2015 at 9:00 PM


Visibility: 30 mi

Pressure: 30.24 "Hg

Humidity: 82%

Dew point: 46 °F

Location of BurnabyLocation

Historic Weather in Burnaby — Graph

°F

Burnaby temperature yesterday

Maximum temperature yesterday: 57 °F (at 1:00 PM)
Minimum temperature yesterday: 43 °F (at 2:00 AM)
Average temperature yesterday: 52 °F

Past Weeks' High & Low Weather Summary

 TemperatureHumidityPressure
High59 °F (Apr 9, 5:00 PM)94% (Apr 17, 6:00 AM)30.54 "Hg (Apr 17, 6:00 AM)
Low34 °F (Apr 5, 7:00 AM)47% (Apr 11, 3:00 PM)29.67 "Hg (Apr 5, 8:00 PM)
Average48 °F75%30.06 "Hg
* Reported Apr 3 8:00 PM — Apr 18 8:00 PM, Burnaby, Weather by CustomWeather, © 2015

Note: Actual official high and low records may vary slightly from our data, if they occured in-between our weather recording intervals... More about our weather records

Advertising

Burnaby weather history for previous 24 hours

 ConditionsComfort  
Time TempWeatherWind HumidityBarometerVisibility
8:00 PM
Sat, Apr 18
52 °FPartly sunny.14 mph82%30.25 "Hg30 mi
7:00 PM54 °FPartly sunny.14 mph77%30.26 "Hg30 mi
6:00 PM54 °FPartly sunny.13 mph82%30.28 "Hg30 mi
5:00 PM55 °FPartly sunny.13 mph77%30.30 "Hg30 mi
4:00 PM57 °FPartly sunny.9 mph72%30.32 "Hg30 mi
3:00 PM57 °FPartly sunny.13 mph72%30.34 "Hg30 mi
2:00 PM55 °FPartly sunny.13 mph72%30.35 "Hg30 mi
1:00 PM55 °FPartly sunny.13 mph77%30.37 "Hg30 mi
12:00 PM55 °FHigh level clouds.13 mph72%30.40 "Hg30 mi
11:00 AM54 °FPartly sunny.12 mph77%30.40 "Hg30 mi
10:00 AM52 °FSunny.13 mph82%30.41 "Hg30 mi
9:00 AM52 °FSunny.12 mph82%30.40 "Hg30 mi
8:00 AM50 °FSunny.10 mph82%30.39 "Hg30 mi
7:00 AM43 °FClear.2 mph93%30.38 "Hg25 mi
6:00 AM45 °FClear.5 mph87%30.37 "Hg20 mi
5:00 AM46 °FClear.8 mph87%30.36 "Hg20 mi
4:00 AM48 °FClear.14 mph87%30.35 "Hg20 mi
3:00 AM50 °FClear.12 mph82%30.34 "Hg20 mi
2:00 AM50 °FClear.14 mph82%30.33 "Hg20 mi
1:00 AM50 °FClear.18 mph82%30.32 "Hg20 mi
12:00 AM52 °FClear.23 mph72%30.29 "Hg20 mi
11:00 PM
Fri, Apr 17
52 °FClear.23 mph72%30.28 "Hg20 mi
10:00 PM52 °FPassing clouds.23 mph77%30.27 "Hg20 mi
9:00 PM54 °FPassing clouds.23 mph67%30.26 "Hg20 mi
Weather by CustomWeather, © 2015

See weather overviewHow to use our weather pages